TimePDT,TemperatureF,Dew PointF,Humidity,Sea Level PressureIn,VisibilityMPH,Wind Direction,Wind SpeedMPH,Gust SpeedMPH,PrecipitationIn,Events,Conditions,WindDirDegrees,DateUTC
12:15 AM,48.2,48.2,100,30.29,10.0,Calm,Calm,-,N/A,,Clear,0,2013-05-31 07:15:00
12:35 AM,46.4,46.4,100,30.30,10.0,SSE,4.6,-,N/A,,Clear,150,2013-05-31 07:35:00
12:55 AM,46.4,46.4,100,30.30,10.0,ESE,3.5,-,N/A,,Mostly Cloudy,120,2013-05-31 07:55:00
1:15 AM,48.2,48.2,100,30.30,10.0,SE,4.6,-,N/A,,Mostly Cloudy,140,2013-05-31 08:15:00
1:35 AM,48.2,48.2,100,30.30,10.0,ESE,3.5,-,N/A,,Mostly Cloudy,120,2013-05-31 08:35:00
1:55 AM,48.2,48.2,100,30.30,10.0,SE,4.6,-,N/A,,Mostly Cloudy,130,2013-05-31 08:55:00
2:15 AM,46.4,46.4,100,30.30,10.0,SE,3.5,-,N/A,,Overcast,140,2013-05-31 09:15:00
2:35 AM,46.4,46.4,100,30.31,10.0,SE,4.6,-,N/A,,Mostly Cloudy,140,2013-05-31 09:35:00
2:55 AM,46.4,46.4,100,30.30,10.0,SE,4.6,-,N/A,,Mostly Cloudy,130,2013-05-31 09:55:00
3:15 AM,46.4,46.4,100,30.30,10.0,SE,5.8,-,N/A,,Partly Cloudy,140,2013-05-31 10:15:00
3:35 AM,46.4,46.4,100,30.29,9.0,SSE,6.9,-,N/A,,Mostly Cloudy,150,2013-05-31 10:35:00
3:55 AM,46.4,46.4,100,30.29,2.0,SSE,5.8,-,N/A,,Overcast,150,2013-05-31 10:55:00
4:15 AM,44.6,44.6,100,30.30,0.8,SSE,5.8,-,N/A,,Overcast,160,2013-05-31 11:15:00
4:35 AM,44.6,44.6,100,30.30,2.5,SSE,5.8,-,N/A,,Overcast,150,2013-05-31 11:35:00
4:55 AM,44.6,44.6,100,30.30,2.5,SSE,3.5,-,N/A,,Overcast,150,2013-05-31 11:55:00
5:15 AM,44.6,44.6,100,30.30,1.2,SSE,4.6,-,N/A,,Overcast,160,2013-05-31 12:15:00
5:35 AM,44.6,44.6,100,30.31,0.5,SSE,4.6,-,N/A,,Overcast,150,2013-05-31 12:35:00
5:55 AM,44.6,44.6,100,30.31,0.2,SSE,4.6,-,N/A,,Overcast,150,2013-05-31 12:55:00
6:15 AM,44.6,44.6,100,30.31,0.8,SSE,4.6,-,N/A,,Overcast,160,2013-05-31 13:15:00
6:35 AM,46.4,46.4,100,30.32,7.0,SSE,4.6,-,N/A,,Overcast,160,2013-05-31 13:35:00
6:55 AM,46.4,46.4,100,30.31,1.8,SE,4.6,-,N/A,,Overcast,140,2013-05-31 13:55:00
7:15 AM,46.4,46.4,100,30.32,10.0,SSE,4.6,-,N/A,,Overcast,150,2013-05-31 14:15:00
7:35 AM,48.2,48.2,100,30.32,10.0,SSE,4.6,-,N/A,,Scattered Clouds,150,2013-05-31 14:35:00
7:55 AM,48.2,48.2,100,30.32,10.0,Calm,Calm,-,N/A,,Clear,0,2013-05-31 14:55:00
8:15 AM,51.8,48.2,88,30.33,10.0,Calm,Calm,-,N/A,,Clear,0,2013-05-31 15:15:00
8:35 AM,51.8,48.2,88,30.33,10.0,Calm,Calm,-,N/A,,Clear,0,2013-05-31 15:35:00
8:55 AM,53.6,50.0,88,30.32,10.0,Calm,Calm,-,N/A,,Clear,0,2013-05-31 15:55:00
9:15 AM,55.4,50.0,82,30.33,10.0,Calm,Calm,-,N/A,,Clear,0,2013-05-31 16:15:00
9:35 AM,55.4,50.0,82,30.32,10.0,NW,3.5,-,N/A,,Clear,320,2013-05-31 16:35:00
9:55 AM,57.2,51.8,82,30.31,10.0,NNW,6.9,-,N/A,,Clear,340,2013-05-31 16:55:00
10:15 AM,59.0,51.8,77,30.31,10.0,NNW,6.9,-,N/A,,Clear,340,2013-05-31 17:15:00
10:35 AM,60.8,51.8,72,30.30,10.0,North,9.2,-,N/A,,Clear,350,2013-05-31 17:35:00
10:55 AM,60.8,51.8,72,30.30,10.0,NNW,13.8,-,N/A,,Clear,330,2013-05-31 17:55:00
11:15 AM,60.8,51.8,72,30.31,10.0,NNW,12.7,-,N/A,,Clear,340,2013-05-31 18:15:00
11:35 AM,60.8,51.8,72,30.31,10.0,NNW,16.1,-,N/A,,Clear,330,2013-05-31 18:35:00
11:55 AM,60.8,51.8,72,30.31,10.0,North,17.3,-,N/A,,Scattered Clouds,350,2013-05-31 18:55:00
12:15 PM,60.8,51.8,72,30.30,10.0,North,13.8,-,N/A,,Scattered Clouds,350,2013-05-31 19:15:00
12:35 PM,60.8,51.8,72,30.29,10.0,North,18.4,-,N/A,,Scattered Clouds,350,2013-05-31 19:35:00
12:55 PM,60.8,51.8,72,30.29,10.0,North,16.1,23.0,N/A,,Scattered Clouds,350,2013-05-31 19:55:00
1:15 PM,60.8,50.0,68,30.28,10.0,North,16.1,-,N/A,,Partly Cloudy,350,2013-05-31 20:15:00
1:35 PM,60.8,51.8,72,30.29,10.0,North,21.9,26.5,N/A,,Partly Cloudy,350,2013-05-31 20:35:00
1:55 PM,60.8,51.8,72,30.29,10.0,North,19.6,28.8,N/A,,Clear,350,2013-05-31 20:55:00
2:15 PM,60.8,51.8,72,30.29,10.0,North,20.7,27.6,N/A,,Clear,350,2013-05-31 21:15:00
2:35 PM,60.8,50.0,68,30.29,10.0,North,23.0,28.8,N/A,,Clear,350,2013-05-31 21:35:00
2:55 PM,60.8,51.8,72,30.28,10.0,North,16.1,26.5,N/A,,Clear,360,2013-05-31 21:55:00
3:15 PM,60.8,51.8,72,30.28,10.0,North,23.0,28.8,N/A,,Clear,350,2013-05-31 22:15:00
3:35 PM,62.6,51.8,68,30.28,10.0,North,19.6,26.5,N/A,,Clear,350,2013-05-31 22:35:00
3:55 PM,60.8,51.8,72,30.28,10.0,North,20.7,27.6,N/A,,Clear,350,2013-05-31 22:55:00
4:15 PM,60.8,50.0,68,30.28,10.0,North,24.2,28.8,N/A,,Clear,360,2013-05-31 23:15:00
4:35 PM,60.8,48.2,63,30.28,10.0,North,19.6,28.8,N/A,,Clear,360,2013-05-31 23:35:00
4:55 PM,60.8,48.2,63,30.27,10.0,North,20.7,27.6,N/A,,Clear,360,2013-05-31 23:55:00
5:15 PM,60.8,48.2,63,30.28,10.0,North,20.7,27.6,N/A,,Clear,360,2013-06-01 00:15:00
5:35 PM,60.8,50.0,68,30.27,10.0,North,20.7,28.8,N/A,,Clear,360,2013-06-01 00:35:00
5:55 PM,60.8,48.2,63,30.27,10.0,North,18.4,23.0,N/A,,Clear,360,2013-06-01 00:55:00
6:15 PM,59.0,50.0,72,30.27,10.0,North,20.7,26.5,N/A,,Clear,360,2013-06-01 01:15:00
6:35 PM,59.0,50.0,72,30.26,10.0,North,16.1,23.0,N/A,,Clear,350,2013-06-01 01:35:00
6:55 PM,59.0,50.0,72,30.26,10.0,North,17.3,20.7,N/A,,Clear,350,2013-06-01 01:55:00
7:15 PM,57.2,50.0,77,30.26,10.0,North,18.4,25.3,N/A,,Clear,350,2013-06-01 02:15:00
7:35 PM,57.2,50.0,77,30.27,10.0,North,12.7,-,N/A,,Clear,360,2013-06-01 02:35:00
7:55 PM,55.4,50.0,82,30.27,10.0,North,13.8,20.7,N/A,,Scattered Clouds,350,2013-06-01 02:55:00
8:15 PM,55.4,51.8,88,30.27,10.0,North,11.5,17.3,N/A,,Scattered Clouds,350,2013-06-01 03:15:00
8:35 PM,55.4,51.8,88,30.27,10.0,North,9.2,-,N/A,,Scattered Clouds,360,2013-06-01 03:35:00
8:55 PM,55.4,51.8,88,30.27,10.0,North,8.1,-,N/A,,Scattered Clouds,360,2013-06-01 03:55:00
9:15 PM,55.4,51.8,88,30.27,10.0,North,10.4,-,N/A,,Clear,350,2013-06-01 04:15:00
9:35 PM,55.4,51.8,88,30.28,10.0,North,9.2,-,N/A,,Clear,360,2013-06-01 04:35:00
9:55 PM,55.4,51.8,88,30.29,10.0,North,8.1,-,N/A,,Clear,350,2013-06-01 04:55:00
10:15 PM,53.6,51.8,94,30.28,10.0,North,8.1,-,N/A,,Clear,350,2013-06-01 05:15:00
10:35 PM,53.6,51.8,94,30.29,10.0,North,5.8,-,N/A,,Partly Cloudy,10,2013-06-01 05:35:00
10:55 PM,53.6,51.8,94,30.28,10.0,NNE,5.8,-,N/A,,Clear,20,2013-06-01 05:55:00
11:15 PM,53.6,51.8,94,30.28,10.0,NNE,4.6,-,N/A,,Clear,30,2013-06-01 06:15:00
11:35 PM,53.6,51.8,94,30.28,10.0,North,3.5,-,N/A,,Clear,350,2013-06-01 06:35:00
11:55 PM,53.6,51.8,94,30.28,10.0,Calm,Calm,-,N/A,,Clear,0,2013-06-01 06:55:00